Temp
19 19 19 19 18 18 18 18 18 18 18 18 19 19 19 19 19 19 19 19 20 20 20 20 20 20 20 20 20 20 20 20 19 19 20 20 20 20 19 19 20 20
19 19 19 19 19 19 19 18 18 18 18 19 19 18 19 19 20 20 20 20 20 20 20 20 20 20 20 20 20 20 20 20 19 19 20 20 20 20 20 19 20 20
20 19 19 19 19 19 19 18 18 18 18 19 18 18 19 19 19 20 20 20 20 19 20 20 20 20 20 20 20 20 20 20 20 19 19 20 20 20 20 19 19 20
20 20 19 19 19 19 18 18 18 18 18 18 18 18 18 18 19 20 20 20 20 20 20 20 20 20 20 20 20 20 20 20 20 19 20 20 20 20 20 19 19 19
20 20 19 19 18 18 18 18 19 19 19 19 19 18 18 19 19 19 20 20 20 20 20 20 20 20 20 20 20 20 20 19 19 20 20 20 20 20 19 19 20 20
20 20 20 19 18 19 19 19 19 19 19 19 19 19 19 19 19 19 19 20 20 20 19 19 20 20 20 20 20 20 20 19 19 19 20 20 20 19 19 19 20 20
20 20 20 19 19 19 19 19 19 19 19 19 19 19 19 19 19 19 19 19 19 19 19 18 19 19 19 20 20 20 20 20 19 20 20 20 20 20 19 19 20 20
20 20 20 20 19 19 19 19 19 19 19 19 19 19 19 19 19 19 19 19 19 18 19 18 19 20 19 19 19 20 20 19 19 20 20 20 20 20 20 20 20 20
20 19 20 20 19 19 19 19 19 19 19 19 19 19 19 19 19 19 19 19 19 19 19 19 19 20 19 19 19 19 20 19 19 19 19 20 20 20 20 20 20 20
20 19 19 20 20 20 20 20 20 20 19 19 19 19 19 19 19 19 19 20 20 19 20 19 19 19 19 19 19 19 19 19 19 19 19 19 19 19 20 19 20 20
20 19 19 20 20 20 20 20 20 20 20 20 19 20 20 19 19 19 19 20 20 19 20 20 19 19 19 19 19 19 19 19 19 19 19 19 20 20 20 20 20 20
20 19 19 20 20 20 20 20 20 20 20 20 20 20 20 19 19 19 19 20 20 19 19 19 19 19 19 19 19 19 19 19 19 19 19 19 20 20 20 20 20 20
20 20 20 20 20 20 20 20 20 20 20 20 20 20 20 20 20 19 19 19 19 19 19 19 19 19 19 19 19 19 19 19 19 19 19 20 20 20 20 20 20 20
21 20 20 20 19 19 19 20 20 20 20 20 20 20 20 20 20 20 20 19 19 19 19 19 19 19 19 19 19 19 19 19 19 19 20 20 20 20 20 20 20 20
21 21 20 20 20 19 19 20 19 19 19 19 19 19 20 20 20 20 20 20 19 19 19 19 19 19 19 19 20 19 19 19 19 19 20 20 20 20 20 20 20 20
21 21 21 20 20 20 20 20 19 19 19 19 19 19 19 19 19 19 20 20 19 19 19 19 20 19 19 19 20 19 19 19 19 19 20 20 20 20 20 20 20 21
21 21 21 20 20 20 20 20 20 19 19 19 19 19 19 19 20 19 19 19 19 19 19 20 20 20 20 20 20 20 20 20 20 20 20 20 20 20 20 20 21 21
20 20 20 20 20 20 19 19 19 19 19 19 19 19 19 20 20 20 20 20 19 19 20 20 20 20 20 20 20 20 20 20 20 20 20 20 20 20 20 20 21 21
20 20 19 19 20 20 19 19 19 19 19 19 18 18 19 19 19 20 20 20 19 19 19 20 20 20 20 20 20 20 20 20 20 20 20 20 20 20 20 20 20 20
19 19 19 19 20 19 19 18 18 18 18 18 19 18 18 19 19 19 20 20 19 19 19 20 20 20 20 20 20 20 20 20 20 20 20 20 20 20 20 20 20 20
18 19 19 19 19 19 18 18 18 19 18 18 19 19 19 19 19 19 19 19 19 19 19 19 20 20 20 20 20 20 20 20 20 20 20 20 20 20 21 21 21 21
17 18 18 18 17 17 18 18 18 19 18 18 19 19 19 19 19 19 19 18 18 18 18 19 19 19 19 20 20 20 20 20 20 20 20 20 19 20 21 21 21 21
17 17 17 17 17 17 17 17 17 18 18 18 18 19 19 18 18 18 18 18 18 17 18 19 19 19 19 19 19 20 20 19 19 20 20 19 19 20 20 20 20 21
16 16 16 16 16 16 16 16 17 17 16 17 17 18 18 18 17 17 17 17 17 17 17 18 18 18 19 19 19 19 19 19 19 19 19 19 18 19 18 18 19 20
16 16 16 16 16 16 16 16 16 16 16 16 16 17 17 17 17 17 17 16 16 16 17 17 17 17 17 18 18 18 18 18 18 18 18 18 18 18 18 18 18 19
15 16 16 16 16 15 15 15 15 15 15 15 15 15 16 16 16 16 16 16 16 16 16 16 16 16 16 17 17 17 17 17 17 17 17 17 17 17 17 17 18 18
Height
1599 1600 1601 1603 1604 1605 1606 1607 1607 1608 1609 1610 1611 1611 1612 1612 1613 1614 1614 1615 1615 1616 1616 1617 1617 1618 1618 1619 1619 1620 1620 1621 1622 1622 1622 1622 1622 1623 1624 1624 1624 1624
1598 1599 1601 1602 1603 1604 1605 1606 1607 1608 1608 1609 1610 1611 1611 1612 1612 1613 1614 1614 1615 1616 1616 1617 1617 1617 1618 1618 1619 1620 1620 1620 1621 1622 1622 1622 1622 1622 1623 1624 1624 1624
1597 1599 1600 1601 1603 1604 1605 1606 1606 1607 1608 1609 1610 1610 1611 1612 1612 1612 1613 1614 1614 1615 1616 1616 1617 1617 1618 1618 1619 1619 1620 1620 1621 1621 1621 1621 1622 1622 1623 1623 1624 1624
1596 1598 1599 1601 1602 1604 1605 1605 1606 1607 1608 1609 1610 1610 1611 1611 1611 1612 1612 1613 1614 1614 1615 1616 1616 1617 1617 1618 1618 1619 1619 1620 1620 1621 1621 1621 1621 1622 1622 1623 1623 1623
1595 1597 1598 1600 1601 1603 1604 1605 1606 1607 1608 1609 1610 1610 1610 1610 1611 1611 1612 1612 1613 1614 1614 1615 1615 1616 1616 1617 1618 1618 1619 1619 1620 1620 1620 1621 1621 1621 1622 1622 1622 1622
1594 1596 1597 1599 1600 1601 1603 1604 1605 1606 1607 1608 1609 1609 1609 1610 1610 1611 1611 1612 1613 1613 1614 1615 1615 1615 1616 1616 1617 1617 1618 1619 1619 1619 1619 1620 1620 1621 1621 1621 1621 1621
1593 1595 1596 1598 1599 1600 1602 1603 1604 1605 1606 1607 1608 1608 1609 1609 1610 1610 1611 1611 1612 1613 1614 1614 1615 1615 1615 1616 1616 1617 1617 1618 1618 1618 1618 1619 1619 1619 1620 1620 1620 1620
1592 1593 1595 1596 1598 1599 1600 1602 1603 1604 1605 1606 1607 1607 1608 1608 1609 1610 1610 1611 1612 1612 1613 1613 1614 1614 1615 1615 1615 1616 1616 1617 1617 1617 1617 1618 1618 1618 1618 1619 1619 1619
1590 1592 1593 1595 1596 1598 1599 1601 1602 1602 1603 1604 1605 1606 1607 1607 1609 1609 1610 1610 1611 1612 1612 1612 1613 1613 1614 1614 1615 1615 1615 1616 1617 1617 1617 1617 1617 1617 1617 1618 1618 1618
1589 1590 1592 1593 1595 1597 1598 1600 1601 1602 1602 1603 1604 1606 1606 1607 1607 1608 1609 1609 1610 1610 1610 1611 1611 1612 1613 1613 1614 1614 1614 1615 1616 1616 1616 1616 1616 1616 1617 1617 1617 1617
1587 1589 1590 1592 1594 1595 1597 1598 1599 1600 1601 1602 1603 1605 1605 1606 1606 1607 1607 1608 1608 1609 1609 1610 1610 1611 1612 1612 1613 1613 1614 1614 1615 1615 1615 1615 1615 1615 1615 1616 1616 1616
1585 1587 1589 1590 1592 1594 1595 1597 1598 1599 1600 1601 1602 1603 1604 1605 1605 1606 1606 1607 1607 1608 1609 1609 1610 1610 1611 1611 1612 1613 1613 1614 1614 1614 1614 1614 1614 1614 1615 1615 1615 1615
1583 1584 1587 1589 1591 1592 1593 1595 1596 1598 1599 1600 1601 1602 1603 1604 1605 1605 1605 1606 1606 1607 1608 1609 1609 1609 1610 1610 1611 1612 1612 1613 1613 1613 1613 1613 1613 1614 1614 1614 1614 1614
1581 1583 1584 1586 1588 1590 1591 1593 1594 1596 1597 1598 1600 1601 1602 1603 1604 1604 1605 1605 1606 1607 1608 1608 1608 1608 1609 1609 1610 1610 1611 1611 1612 1612 1612 1613 1613 1613 1613 1613 1613 1614
1578 1580 1582 1584 1585 1587 1589 1590 1591 1593 1594 1596 1597 1599 1600 1601 1602 1604 1604 1605 1605 1606 1607 1607 1608 1608 1608 1608 1608 1609 1610 1611 1611 1611 1611 1612 1612 1612 1612 1612 1612 1613
1576 1577 1579 1581 1583 1584 1586 1587 1589 1591 1592 1594 1595 1596 1598 1599 1600 1602 1603 1603 1604 1604 1605 1606 1607 1607 1607 1607 1607 1608 1608 1609 1609 1609 1610 1610 1610 1610 1611 1611 1611 1611
1573 1574 1576 1578 1580 1582 1583 1585 1586 1588 1589 1591 1593 1594 1596 1597 1598 1599 1601 1602 1603 1603 1604 1605 1605 1605 1604 1605 1606 1606 1607 1607 1607 1608 1608 1608 1608 1609 1609 1609 1610 1610
1570 1572 1573 1575 1577 1579 1581 1583 1584 1586 1587 1588 1590 1592 1593 1595 1596 1597 1598 1600 1601 1602 1603 1603 1602 1602 1602 1603 1604 1605 1605 1605 1606 1607 1607 1607 1607 1607 1608 1608 1608 1608
1567 1569 1571 1572 1574 1576 1578 1580 1582 1583 1584 1586 1587 1589 1591 1592 1594 1595 1596 1597 1598 1599 1600 1599 1599 1599 1600 1601 1602 1603 1603 1604 1604 1605 1605 1606 1606 1606 1606 1606 1606 1606
1565 1566 1568 1570 1571 1573 1575 1576 1578 1580 1581 1583 1584 1586 1588 1590 1591 1593 1594 1595 1596 1596 1596 1596 1596 1597 1598 1599 1600 1600 1601 1601 1602 1603 1604 1604 1604 1603 1604 1604 1604 1604
1562 1564 1566 1567 1569 1570 1572 1573 1574 1577 1579 1581 1582 1582 1584 1586 1588 1590 1592 1593 1593 1594 1593 1593 1594 1595 1596 1597 1597 1598 1599 1599 1600 1601 1602 1602 1601 1601 1601 1601 1601 1601
1560 1561 1563 1565 1567 1568 1569 1570 1572 1574 1576 1580 1580 1579 1579 1582 1585 1587 1589 1590 1591 1591 1591 1590 1591 1593 1593 1594 1595 1595 1596 1597 1597 1598 1599 1599 1598 1598 1598 1598 1598 1598
1557 1559 1561 1563 1565 1566 1567 1569 1570 1571 1574 1577 1578 1576 1576 1579 1581 1584 1586 1587 1588 1588 1588 1588 1589 1590 1591 1591 1592 1593 1593 1594 1595 1595 1595 1596 1596 1596 1596 1596 1595 1594
1555 1556 1559 1561 1562 1564 1565 1566 1568 1570 1572 1574 1574 1573 1574 1576 1579 1581 1583 1584 1584 1585 1586 1586 1587 1587 1588 1588 1589 1590 1591 1592 1592 1592 1593 1593 1593 1593 1593 1593 1592 1591
1554 1555 1557 1559 1561 1562 1563 1565 1567 1569 1571 1572 1572 1571 1573 1575 1577 1579 1580 1581 1583 1584 1584 1584 1585 1585 1585 1586 1586 1587 1588 1589 1590 1590 1590 1591 1591 1591 1591 1590 1590 1589
1555 1556 1557 1559 1561 1563 1564 1566 1568 1568 1569 1570 1571 1571 1572 1574 1576 1577 1578 1580 1582 1583 1583 1583 1583 1584 1584 1584 1584 1585 1585 1586 1587 1588 1588 1589 1589 1589 1589 1589 1588 1587
Wind_Speed
12 12 12 11 10 10 9 8 7 7 7 7 6 6 6 7 8 8 8 8 7 7 7 7 6 6 7 6 6 6 5 5 4 3 2 1 2 2 3 4 4 4
12 12 13 12 12 12 10 8 7 7 7 7 7 6 7 8 8 8 8 8 8 7 7 7 6 7 7 7 7 6 6 6 5 4 4 3 3 3 3 4 4 5
13 13 13 12 11 11 9 8 8 7 6 6 7 7 7 7 8 8 9 9 8 8 7 7 6 6 7 7 7 6 6 6 5 5 6 5 4 4 4 4 4 5
14 13 13 12 10 10 9 9 9 8 7 7 7 8 8 8 8 9 9 10 10 9 8 8 7 7 7 7 7 6 6 6 6 7 7 6 6 6 5 5 5 5
15 14 14 13 12 11 10 10 9 8 8 8 8 8 9 10 9 9 9 9 9 9 9 8 8 8 8 8 7 7 7 6 6 7 7 7 7 6 5 7 7 6
15 15 15 14 14 13 11 10 10 9 9 9 9 8 9 9 9 9 9 9 9 8 8 8 8 8 8 8 8 8 7 6 7 8 7 7 7 6 6 7 8 8
16 16 15 15 14 14 12 10 10 10 10 9 10 10 9 9 9 9 9 9 9 8 8 8 9 9 9 8 8 8 7 7 8 8 7 7 8 7 8 8 9 8
15 15 16 16 15 14 13 12 12 11 11 11 10 10 10 10 10 10 10 9 9 9 10 10 10 10 9 8 8 7 7 7 7 7 6 7 7 8 8 9 9 9
16 16 16 17 16 15 13 13 13 12 12 12 10 10 10 11 10 10 11 10 10 11 11 11 11 10 9 9 8 7 7 7 7 7 7 7 7 7 7 7 8 8
16 16 16 16 16 16 15 14 13 12 12 12 11 10 10 11 11 11 11 11 10 11 11 10 10 10 9 9 8 8 7 7 7 7 7 7 7 8 7 7 8 7
15 15 15 16 17 16 15 15 15 13 13 13 12 12 11 11 12 12 12 12 10 10 10 10 10 10 9 9 8 8 7 7 7 7 7 8 8 8 8 8 8 8
15 15 15 15 16 16 15 15 15 15 14 13 14 13 12 12 12 12 12 12 11 11 11 11 11 10 10 10 9 9 9 8 8 8 8 7 7 7 8 7 7 8
16 16 15 15 15 15 15 14 15 15 15 14 14 14 14 13 12 12 12 12 12 11 11 11 12 12 12 12 11 10 10 10 9 9 8 8 7 7 7 7 8 8
18 16 15 15 15 15 15 15 14 14 15 15 14 14 15 14 13 13 13 12 12 12 12 12 12 13 13 13 12 11 11 10 10 9 9 8 8 7 7 8 8 8
19 18 17 16 16 16 16 16 16 15 15 15 15 14 14 14 14 13 12 12 12 13 13 13 12 12 13 14 13 12 11 10 10 10 9 9 9 8 8 8 8 9
20 19 19 18 17 17 17 18 17 16 15 15 16 15 14 14 15 14 13 12 12 13 14 13 12 13 15 16 15 13 13 12 11 12 12 11 10 9 9 9 9 10
22 20 20 19 18 18 18 18 18 17 17 16 16 16 15 16 17 16 15 13 11 12 13 12 13 16 18 18 17 16 16 16 15 14 14 13 12 11 10 10 10 10
24 21 19 19 20 19 18 18 18 17 18 18 16 15 15 16 16 16 17 15 13 12 11 11 16 21 21 19 17 18 18 17 16 14 13 13 12 11 11 10 10 10
28 25 22 22 22 20 17 17 18 17 17 18 16 14 14 15 15 17 18 16 14 13 12 15 20 22 20 18 18 18 18 18 16 14 13 13 13 12 12 12 11 11
29 28 26 25 26 23 19 18 19 17 18 20 19 17 15 15 14 15 16 14 14 15 15 18 20 19 18 18 18 17 18 18 17 15 13 13 14 14 13 13 13 12
23 24 24 24 26 25 23 23 22 19 18 19 19 19 19 18 16 15 15 14 14 14 16 19 20 18 17 17 16 16 17 17 17 16 14 13 15 16 16 15 15 14
19 19 19 19 20 23 25 24 22 20 19 18 17 17 18 19 18 17 17 16 15 15 16 19 19 17 17 17 16 17 17 17 18 17 16 15 16 18 18 17 16 16
19 18 16 15 16 19 21 20 17 18 20 20 20 18 18 18 17 17 16 15 16 17 19 20 19 18 18 18 18 19 18 17 18 18 17 17 17 18 17 15 16 18
16 16 15 15 16 17 17 16 15 16 18 18 19 19 19 19 18 17 16 14 14 16 18 18 17 17 19 19 19 20 18 17 17 17 16 15 14 13 12 11 14 16
12 12 12 12 13 13 12 12 12 14 15 16 16 16 16 17 17 17 17 15 13 13 14 14 13 14 16 16 17 17 16 15 14 13 11 11 11 11 10 11 12 14
14 13 12 11 11 11 12 12 12 13 13 13 12 12 13 14 14 14 14 13 12 12 12 11 11 11 10 10 11 11 11 12 11 10 10 11 10 9 9 9 10 12
Wind_Direction
194 197 196 197 198 199 201 205 208 210 209 206 206 210 209 204 200 196 196 198 199 200 203 206 206 206 209 211 205 205 216 211 210 242 251 241 250 256 273 276 281 285
196 198 199 199 200 201 200 201 205 209 215 210 204 208 206 204 203 200 196 195 196 199 205 209 209 210 210 212 210 210 220 217 211 236 253 252 255 252 256 268 277 277
201 200 201 201 202 203 201 206 208 204 212 216 209 206 202 204 209 205 199 196 195 198 204 209 212 216 215 213 214 213 221 224 213 226 245 249 253 256 258 265 269 272
204 204 204 202 203 205 203 206 208 203 206 210 209 206 200 204 212 207 202 199 197 198 203 207 210 215 219 217 218 217 223 230 226 229 242 249 251 254 256 257 255 256
205 206 206 203 204 208 206 204 203 201 205 204 204 210 210 209 208 205 206 203 201 202 204 208 211 214 222 222 220 222 224 231 243 243 243 248 253 257 256 255 254 253
207 206 207 207 208 209 206 206 205 201 203 204 204 211 216 215 209 205 208 205 203 208 208 214 218 214 221 224 219 224 223 218 235 244 241 242 246 247 249 254 257 258
211 209 208 207 210 213 210 208 209 203 201 205 207 208 208 210 209 206 209 207 204 208 207 213 220 215 217 224 221 224 223 215 224 234 233 236 241 243 247 254 259 260
212 212 212 209 208 213 213 210 211 206 203 204 207 210 207 206 207 208 212 210 205 211 210 211 219 217 215 222 224 223 222 221 230 237 233 233 239 242 246 253 258 260
214 212 214 212 208 211 212 211 212 210 210 208 206 211 213 209 207 208 218 219 211 216 218 215 219 218 214 220 224 225 224 222 228 237 240 237 237 241 243 248 255 258
215 213 212 212 210 211 212 210 210 210 215 214 208 210 215 215 211 210 222 229 223 224 225 221 222 218 214 220 228 232 233 229 230 236 241 242 239 241 242 241 247 251
214 212 212 211 209 211 214 214 213 211 214 216 213 212 212 216 217 213 221 230 226 227 229 224 223 221 217 220 225 232 233 232 239 242 242 246 245 244 246 244 245 247
210 207 209 211 210 210 213 215 217 216 217 218 216 215 212 213 217 216 221 227 223 222 225 226 225 224 225 223 221 226 229 227 234 240 241 246 248 249 251 251 248 249
212 207 207 208 210 212 212 214 218 219 221 221 220 218 216 215 216 217 219 225 224 220 221 226 228 227 227 225 218 221 228 227 227 233 236 239 243 245 246 248 248 248
221 217 214 210 210 212 212 212 215 217 219 222 222 221 221 220 221 222 222 224 227 226 224 228 232 231 227 225 220 219 225 229 228 229 233 236 240 241 241 242 243 243
229 229 226 219 216 218 218 216 216 218 220 221 222 222 224 225 224 225 226 226 227 229 229 229 232 233 231 227 223 221 224 229 233 233 232 235 239 240 240 240 241 242
228 233 234 230 224 222 222 221 219 220 222 225 229 227 226 227 226 224 226 228 231 234 235 234 232 234 236 232 225 224 225 226 231 233 231 231 235 238 240 242 244 245
227 231 233 233 229 225 224 223 221 221 222 225 231 233 232 235 235 233 231 230 233 237 239 239 235 235 238 236 229 229 231 230 234 238 238 237 239 241 243 244 247 247
229 227 227 228 227 227 229 228 225 225 224 223 225 231 236 239 241 241 239 233 230 235 235 235 235 236 239 240 236 234 234 234 237 242 244 243 243 244 246 246 248 249
234 233 234 233 232 230 231 232 232 231 229 224 220 222 229 234 237 241 242 236 231 233 231 231 238 242 244 243 241 238 237 237 238 241 244 245 244 245 249 251 253 256
236 236 238 241 241 236 233 234 233 231 230 227 222 222 227 230 233 237 240 235 231 232 233 236 243 248 247 245 243 242 242 240 240 243 247 248 249 248 248 251 256 261
232 233 235 239 241 238 236 236 233 233 237 235 228 228 230 230 229 229 227 224 225 231 238 241 244 247 247 246 244 243 243 242 241 242 244 247 250 251 249 250 254 258
223 224 226 230 234 235 237 237 235 234 236 232 224 221 220 219 219 221 222 222 223 227 237 243 246 249 251 250 248 247 246 246 244 243 243 245 248 253 255 256 257 256
217 217 218 220 223 227 231 232 229 225 221 219 216 210 205 205 207 212 219 224 223 224 234 245 250 253 254 254 254 253 252 252 252 250 250 251 254 259 263 263 261 259
197 199 202 203 202 207 214 215 213 211 208 207 208 206 205 207 207 207 208 210 214 223 234 244 249 251 253 254 255 256 254 254 255 257 258 258 258 260 260 257 259 262
159 167 172 182 190 191 191 188 186 189 189 191 194 196 200 205 207 206 204 202 209 227 236 241 245 248 251 253 253 255 254 251 249 249 251 252 251 248 244 245 255 262
123 130 135 142 146 143 145 153 156 159 164 168 174 178 183 190 195 198 199 200 210 225 231 233 237 241 246 248 245 244 245 244 240 233 232 240 245 246 245 248 255 263